AB1IG Weather Reports


Display with metric or nautical units.
time (UTC)temp
F
wind
direction
speed
MPH
gust
MPH
rain 1hr
in
rain 24hr
in
rain mn
in
humidity
%
barometer
mb
20260831143011 86 130 1.0 8.0 0.00 0.00 0.00 53 1011.6
20260831141506 85 259 3.0 8.0 0.00 0.00 0.00 54 1011.7
20260831140005 84 121 1.0 9.0 0.00 0.00 0.00 55 1011.7
20260831134504 83 293 1.0 7.0 0.00 0.00 0.00 55 1011.7
20260831133002 82 288 2.0 6.0 0.00 0.00 0.00 56 1011.5
20260831131501 81 278 3.0 7.0 0.00 0.00 0.00 56 1011.4
20260831130114 80 146 2.0 7.0 0.00 0.00 0.00 57 1011.3
20260831124603 80 181 1.0 4.0 0.00 0.00 0.00 57 1011.2
20260831123058 80 139 1.0 5.0 0.00 0.00 0.00 56 1010.9
20260831121602 80 146 1.0 5.0 0.00 0.00 0.00 56 1010.7
20260831120051 80 91 1.0 5.0 0.00 0.00 0.00 55 1010.4
20260831114653 80 252 1.0 4.0 0.00 0.00 0.00 54 1010.2
20260831113046 80 228 1.0 6.0 0.00 0.00 0.00 53 1010.1
20260831111543 81 100 2.0 6.0 0.00 0.00 0.00 53 1009.9
20260831110041 81 285 1.0 6.0 0.00 0.00 0.00 52 1009.6
20260831104540 81 207 1.0 5.0 0.00 0.00 0.00 52 1009.5
20260831103044 81 149 2.0 8.0 0.00 0.00 0.00 51 1009.6
20260831101538 81 181 1.0 6.0 0.00 0.00 0.00 51 1009.4
20260831100056 82 233 1.0 5.0 0.00 0.00 0.00 50 1009.4
20260831094535 82 239 2.0 5.0 0.00 0.00 0.00 50 1009.4
20260831093044 82 243 2.0 6.0 0.00 0.00 0.00 51 1009.3
20260831091535 81 321 2.0 7.0 0.00 0.00 0.00 51 1009.0
20260831090031 81 234 2.0 7.0 0.00 0.00 0.00 52 1009.0
20260831084531 81 111 1.0 5.0 0.00 0.00 0.00 51 1009.0
20260831083027 82 155 1.0 6.0 0.00 0.00 0.00 50 1008.9
20260831081531 82 226 1.0 8.0 0.00 0.00 0.00 50 1009.0
20260831080024 83 60 1.0 7.0 0.00 0.00 0.00 49 1009.0
20260831074526 83 236 0.0 6.0 0.00 0.00 0.00 49 1008.8
20260831073021 83 156 2.0 6.0 0.00 0.00 0.00 48 1008.8
20260831071518 83 200 3.0 9.0 0.00 0.00 0.00 48 1008.9
20260831070021 84 235 2.0 7.0 0.00 0.00 0.00 47 1008.8
20260831064516 84 229 2.0 6.0 0.00 0.00 0.00 46 1008.8
20260831063013 85 295 2.0 8.0 0.00 0.00 0.00 46 1008.8
20260831061512 85 229 3.0 9.0 0.00 0.00 0.00 46 1008.8
20260831060009 85 226 3.0 10.0 0.00 0.00 0.00 46 1008.8
20260831054507 85 266 3.0 8.0 0.00 0.00 0.00 45 1008.6
20260831053020 86 154 2.0 8.0 0.00 0.00 0.00 45 1008.6
20260831051502 86 319 2.0 7.0 0.00 0.00 0.00 45 1008.5
20260831050100 87 276 2.0 7.0 0.00 0.00 0.00 44 1008.5
20260831044558 87 210 3.0 8.0 0.00 0.00 0.00 43 1008.4
20260831043102 88 295 1.0 7.0 0.00 0.00 0.00 42 1008.4
20260831041559 88 169 1.0 7.0 0.00 0.00 0.00 42 1008.4
20260831040058 88 287 1.0 9.0 0.00 0.00 0.00 41 1008.3
20260831034558 89 264 1.0 6.0 0.00 0.00 0.00 41 1008.2
20260831033058 89 15 2.0 7.0 0.00 0.00 0.00 40 1008.2
20260831031556 90 205 2.0 10.0 0.00 0.00 0.00 40 1008.1
20260831030056 91 231 4.0 10.0 0.00 0.00 0.00 39 1007.9
20260831024559 91 259 2.0 8.0 0.00 0.00 0.00 39 1007.7
20260831023103 92 316 3.0 9.0 0.00 0.00 0.00 39 1007.4
20260831021554 92 72 3.0 11.0 0.00 0.00 0.00 38 1007.2
20260831020110 93 203 2.0 7.0 0.00 0.00 0.00 36 1006.9
20260831014552 93 268 3.0 7.0 0.00 0.00 0.00 35 1006.7
20260831013052 94 259 1.0 5.0 0.00 0.00 0.00 34 1006.6
20260831011604 95 98 0.0 7.0 0.00 0.00 0.00 33 1006.5
20260831010051 96 240 1.0 8.0 0.00 0.00 0.00 32 1006.3
20260831004650 97 204 1.0 9.0 0.00 0.00 0.00 31 1006.3
20260831003050 98 192 1.0 8.0 0.00 0.00 0.00 31 1006.2
20260831001550 99 288 2.0 9.0 0.00 0.00 0.00 30 1006.3
20260831000048 99 310 2.0 9.0 0.00 0.00 0.00 30 1006.3
20260830234548 100 183 4.0 9.0 0.00 0.00 0.00 29 1006.2
20260830233047 100 111 2.0 7.0 0.00 0.00 0.00 29 1006.3
20260830231546 101 212 3.0 9.0 0.00 0.00 0.00 28 1006.3
20260830230045 103 77 2.0 6.0 0.00 0.00 0.00 27 1006.3
20260830224544 103 153 2.0 7.0 0.00 0.00 0.00 26 1006.2
20260830223042 103 315 3.0 8.0 0.00 0.00 0.00 27 1006.2
20260830221546 104 70 2.0 9.0 0.00 0.00 0.00 27 1006.2
20260830220046 103 332 4.0 11.0 0.00 0.00 0.00 27 1006.2
20260830214543 103 121 4.0 13.0 0.00 0.00 0.00 28 1006.3
20260830213048 103 184 4.0 10.0 0.00 0.00 0.00 27 1006.6
20260830211551 103 319 3.0 9.0 0.00 0.00 0.00 27 1006.8
20260830210050 103 290 2.0 7.0 0.00 0.00 0.00 28 1006.9
20260830204534 104 229 3.0 9.0 0.00 0.00 0.00 27 1007.1
20260830203041 103 159 3.0 10.0 0.00 0.00 0.00 28 1007.4
20260830201528 104 163 3.0 9.0 0.00 0.00 0.00 27 1007.6
20260830200025 104 252 3.0 6.0 0.00 0.00 0.00 28 1007.8
20260830194521 103 95 3.0 9.0 0.00 0.00 0.00 29 1007.8
20260830193021 102 359 4.0 9.0 0.00 0.00 0.00 29 1008.1
20260830191518 102 256 3.0 7.0 0.00 0.00 0.00 30 1008.1
20260830190011 101 264 5.0 9.0 0.00 0.00 0.00 30 1008.3
20260830184509 101 319 2.0 11.0 0.00 0.00 0.00 30 1008.3
20260830183006 101 180 3.0 11.0 0.00 0.00 0.00 32 1008.7
20260830181504 101 186 4.0 10.0 0.00 0.00 0.00 31 1009.0
20260830180001 100 317 3.0 12.0 0.00 0.00 0.00 33 1009.1
20260830174602 100 155 3.0 8.0 0.00 0.00 0.00 35 1009.1
20260830173056 99 259 3.0 12.0 0.00 0.00 0.00 35 1009.4
20260830171552 98 255 4.0 11.0 0.00 0.00 0.00 36 1009.6
20260830170049 97 185 4.0 15.0 0.00 0.00 0.00 37 1009.7
20260830164549 97 124 5.0 13.0 0.00 0.00 0.00 38 1009.9
20260830163045 96 13 5.0 13.0 0.00 0.00 0.00 38 1010.0
20260830161558 95 174 6.0 13.0 0.00 0.00 0.00 39 1010.0
20260830160039 94 11 4.0 11.0 0.00 0.00 0.00 41 1010.1
20260830154539 93 149 4.0 12.0 0.00 0.00 0.00 42 1010.0
20260830153048 92 242 5.0 11.0 0.00 0.00 0.00 44 1010.0
20260830151527 90 209 5.0 10.0 0.00 0.00 0.00 46 1010.1
20260830150023 88 214 2.0 9.0 0.00 0.00 0.00 50 1010.1
20260830144520 85 135 4.0 10.0 0.00 0.00 0.00 52 1010.3